Tiempo cada hora Abanto

Hoy, 23 Junio, Miércoles

Tiempo Temperatura Precipitaciones Viento Presión Humedad
00:00 +13°C° 0.1 mm 2 mps 682 mmHg 79%
01:00 +13°C° 0.3 mm 2 mps 682 mmHg 80%
02:00 +12°C° 0.3 mm 2 mps 682 mmHg 81%
03:00 +12°C° 0.3 mm 1 mps 682 mmHg 82%
04:00 +12°C° 0.2 mm 2 mps 682 mmHg 82%
05:00 +12°C° 0.2 mm 2 mps 682 mmHg 82%
06:00 +12°C° 0.2 mm 2 mps 682 mmHg 83%
07:00 +11°C° 0.5 mm 3 mps 682 mmHg 83%
08:00 +11°C° 0.5 mm 3 mps 682 mmHg 83%
09:00 +10°C° 0.5 mm 4 mps 683 mmHg 83%
10:00 +11°C° 0.1 mm 3 mps 683 mmHg 80%
11:00 +11°C° 0.1 mm 3 mps 683 mmHg 76%
12:00 +11°C° 0.1 mm 3 mps 683 mmHg 72%
13:00 +13°C° 0 mm 2 mps 683 mmHg 68%
14:00 +14°C° 0 mm 2 mps 683 mmHg 63%
15:00 +15°C° 0 mm 1 mps 683 mmHg 59%
16:00 +16°C° 0 mm 2 mps 684 mmHg 56%
17:00 +16°C° 0 mm 2 mps 684 mmHg 54%
18:00 +16°C° 0 mm 2 mps 684 mmHg 52%
19:00 +15°C° 0 mm 2 mps 684 mmHg 58%
20:00 +14°C° 0 mm 2 mps 684 mmHg 65%
21:00 +12°C° 0 mm 3 mps 685 mmHg 71%
22:00 +12°C° 0 mm 2 mps 684 mmHg 75%
23:00 +11°C° 0 mm 1 mps 684 mmHg 78%

Mañana, 24 Junio, Jueves

Tiempo Temperatura Precipitaciones Viento Presión Humedad
00:00 +10°C° 0 mm 0 mps 684 mmHg 82%
01:00 +9°C° 0 mm 0 mps 684 mmHg 83%
02:00 +9°C° 0 mm 0 mps 684 mmHg 83%
03:00 +9°C° 0 mm 0 mps 684 mmHg 84%
04:00 +9°C° 0 mm 0 mps 684 mmHg 81%
05:00 +10°C° 0 mm 0 mps 684 mmHg 78%
06:00 +11°C° 0 mm 0 mps 685 mmHg 75%
07:00 +13°C° 0 mm 1 mps 685 mmHg 70%
08:00 +15°C° 0 mm 2 mps 685 mmHg 66%
09:00 +16°C° 0 mm 2 mps 686 mmHg 61%
10:00 +18°C° 0 mm 2 mps 686 mmHg 55%
11:00 +19°C° 0 mm 2 mps 686 mmHg 50%
12:00 +20°C° 0 mm 2 mps 686 mmHg 44%
13:00 +21°C° 0 mm 2 mps 686 mmHg 41%
14:00 +23°C° 0 mm 2 mps 686 mmHg 38%
15:00 +24°C° 0 mm 2 mps 685 mmHg 35%
16:00 +24°C° 0 mm 3 mps 685 mmHg 36%
17:00 +24°C° 0 mm 3 mps 685 mmHg 38%
18:00 +23°C° 0 mm 4 mps 685 mmHg 39%
19:00 +21°C° 0 mm 4 mps 685 mmHg 47%
20:00 +19°C° 0 mm 3 mps 685 mmHg 55%
21:00 +17°C° 0 mm 3 mps 686 mmHg 63%
22:00 +16°C° 0 mm 2 mps 685 mmHg 66%
23:00 +16°C° 0 mm 2 mps 685 mmHg 68%

Pasado mañana, 25 Junio, Viernes

Tiempo Temperatura Precipitaciones Viento Presión Humedad
00:00 +15°C° 0 mm 2 mps 685 mmHg 71%
01:00 +15°C° 0 mm 1 mps 685 mmHg 73%
02:00 +14°C° 0 mm 1 mps 685 mmHg 75%
03:00 +14°C° 0 mm 1 mps 685 mmHg 76%
04:00 +15°C° 0 mm 1 mps 685 mmHg 74%
05:00 +15°C° 0 mm 1 mps 685 mmHg 72%
06:00 +16°C° 0 mm 1 mps 685 mmHg 70%
07:00 +18°C° 0 mm 1 mps 685 mmHg 65%
08:00 +20°C° 0 mm 1 mps 686 mmHg 60%
09:00 +22°C° 0 mm 1 mps 686 mmHg 55%
10:00 +24°C° 0 mm 1 mps 686 mmHg 50%
11:00 +25°C° 0 mm 1 mps 686 mmHg 45%
12:00 +27°C° 0 mm 2 mps 686 mmHg 39%
13:00 +28°C° 0 mm 2 mps 685 mmHg 37%
14:00 +29°C° 0 mm 3 mps 685 mmHg 34%
15:00 +30°C° 0 mm 3 mps 685 mmHg 31%
16:00 +29°C° 0 mm 3 mps 685 mmHg 33%
17:00 +29°C° 0 mm 3 mps 684 mmHg 35%
18:00 +28°C° 0 mm 4 mps 684 mmHg 37%
19:00 +26°C° 0 mm 3 mps 684 mmHg 42%
20:00 +25°C° 0 mm 3 mps 684 mmHg 47%
21:00 +23°C° 0 mm 2 mps 684 mmHg 53%
22:00 +21°C° 0 mm 2 mps 684 mmHg 55%
23:00 +20°C° 0 mm 2 mps 684 mmHg 57%

26 Junio, Sábado

Tiempo Temperatura Precipitaciones Viento Presión Humedad
00:00 +20°C° 0 mm 2 mps 684 mmHg 58%
01:00 +20°C° 0 mm 1 mps 684 mmHg 60%
02:00 +20°C° 0 mm 1 mps 683 mmHg 62%
03:00 +19°C° 0 mm 1 mps 683 mmHg 63%
04:00 +20°C° 0 mm 1 mps 684 mmHg 62%
05:00 +20°C° 0 mm 1 mps 684 mmHg 61%
06:00 +21°C° 0 mm 1 mps 684 mmHg 60%
07:00 +23°C° 0 mm 1 mps 684 mmHg 54%
08:00 +24°C° 0 mm 1 mps 685 mmHg 48%
09:00 +26°C° 0 mm 1 mps 685 mmHg 42%
10:00 +28°C° 0 mm 1 mps 685 mmHg 36%
11:00 +30°C° 0 mm 2 mps 685 mmHg 31%
12:00 +32°C° 0 mm 2 mps 685 mmHg 26%
13:00 +33°C° 0 mm 3 mps 684 mmHg 25%
14:00 +34°C° 0 mm 4 mps 684 mmHg 23%
15:00 +34°C° 0 mm 5 mps 684 mmHg 21%
16:00 +34°C° 0 mm 5 mps 684 mmHg 23%
17:00 +33°C° 0 mm 5 mps 683 mmHg 24%
18:00 +32°C° 0 mm 5 mps 683 mmHg 26%
19:00 +29°C° 0 mm 4 mps 683 mmHg 32%
20:00 +27°C° 0 mm 3 mps 683 mmHg 39%
21:00 +25°C° 0 mm 2 mps 683 mmHg 45%
22:00 +24°C° 0 mm 2 mps 683 mmHg 48%
23:00 +23°C° 0 mm 2 mps 683 mmHg 51%

27 Junio, Domingo

Tiempo Temperatura Precipitaciones Viento Presión Humedad
00:00 +23°C° 0 mm 2 mps 683 mmHg 55%
01:00 +22°C° 0 mm 1 mps 683 mmHg 56%
02:00 +21°C° 0 mm 1 mps 683 mmHg 57%
03:00 +21°C° 0 mm 1 mps 682 mmHg 58%
04:00 +21°C° 0 mm 1 mps 683 mmHg 58%
05:00 +21°C° 0 mm 1 mps 683 mmHg 58%
06:00 +22°C° 0 mm 1 mps 683 mmHg 58%
07:00 +23°C° 0 mm 1 mps 684 mmHg 51%
08:00 +25°C° 0 mm 2 mps 684 mmHg 45%
09:00 +27°C° 0 mm 2 mps 684 mmHg 39%
10:00 +28°C° 0 mm 3 mps 684 mmHg 33%
11:00 +30°C° 0 mm 4 mps 684 mmHg 27%
12:00 +32°C° 0 mm 5 mps 685 mmHg 22%
13:00 +33°C° 0 mm 5 mps 684 mmHg 20%
14:00 +33°C° 0 mm 5 mps 684 mmHg 19%
15:00 +34°C° 0 mm 6 mps 684 mmHg 18%
16:00 +32°C° 0 mm 6 mps 684 mmHg 24%
17:00 +30°C° 0 mm 5 mps 684 mmHg 29%
18:00 +28°C° 0 mm 5 mps 684 mmHg 35%
19:00 +26°C° 0 mm 4 mps 684 mmHg 46%
20:00 +22°C° 0 mm 3 mps 684 mmHg 56%
21:00 +19°C° 0 mm 2 mps 684 mmHg 67%
22:00 +19°C° 0 mm 2 mps 684 mmHg 69%
23:00 +19°C° 0 mm 1 mps 684 mmHg 71%

28 Junio, Lunes

Tiempo Temperatura Precipitaciones Viento Presión Humedad
00:00 +19°C° 0 mm 1 mps 684 mmHg 73%
01:00 +18°C° 0 mm 1 mps 684 mmHg 74%
02:00 +18°C° 0 mm 1 mps 684 mmHg 75%
03:00 +18°C° 0 mm 1 mps 684 mmHg 76%
04:00 +18°C° 0 mm 1 mps 684 mmHg 74%
05:00 +18°C° 0 mm 1 mps 684 mmHg 73%
06:00 +18°C° 0 mm 1 mps 684 mmHg 71%
07:00 +20°C° 0 mm 1 mps 684 mmHg 63%
08:00 +22°C° 0 mm 1 mps 685 mmHg 55%
09:00 +24°C° 0 mm 2 mps 685 mmHg 46%
10:00 +26°C° 0 mm 2 mps 685 mmHg 41%
11:00 +28°C° 0 mm 3 mps 685 mmHg 35%
12:00 +29°C° 0 mm 4 mps 686 mmHg 30%
13:00 +30°C° 0 mm 4 mps 685 mmHg 29%
14:00 +32°C° 0 mm 4 mps 685 mmHg 27%
15:00 +32°C° 0 mm 5 mps 685 mmHg 26%
16:00 +30°C° 0 mm 5 mps 685 mmHg 29%
17:00 +29°C° 0 mm 5 mps 685 mmHg 32%
18:00 +28°C° 0 mm 5 mps 684 mmHg 35%
19:00 +26°C° 0 mm 4 mps 684 mmHg 43%
20:00 +24°C° 0 mm 3 mps 684 mmHg 51%
21:00 +21°C° 0 mm 3 mps 684 mmHg 60%
22:00 +20°C° 0 mm 2 mps 684 mmHg 63%
23:00 +19°C° 0 mm 2 mps 684 mmHg 66%
Mostrar más

Necesitamos Su Consentimiento

Meteoprog y nuestros Proveedores de Servicios pueden almacenar y acceder a sus datos personales como cookies, identificadores de dispositivo u otras tecnologías similares de su dispositivo y procesar dichos datos para personalizar contenido y anuncios, además de ofrecer funciones de redes sociales y analizar el tráfico.

  • Almacenar y/o acceder a información en su dispositivo

    Se puede almacenar o acceder a cookies, identificadores de dispositivo u otra información de su dispositivo para los fines anteriormente indicados.

  • Anuncios y contenido personalizados, medición de anuncios y contenido, percepciones del público, y desarrollo de productos

    Los anuncios y el contenido pueden personalizarse en base a su perfil. Se pueden añadir más datos para personalizar mejor los anuncios y contenidos. Se puede medir el rendimiento de los anuncios y contenidos. Se puede obtener la percepción sobre el público que ha visto los anuncios y contenidos. Dichos datos pueden usarse para desarrollar o mejorar la experiencia del usuario, sistemas y software.

Al hacer clic en ‘Estoy De Acuerdo’ usted permitirá el uso de las cookies, identificadores de dispositivo, balizas web u otras tecnologías similares indicadas. Su configuración puede cambiarse desde el navegador de su dispositivo.

Para ciertos fines, los intereses legítimos pueden ser considerados por encima del consentimiento. Puede leer más sobre ello en nuestra Política de Privacidad y Cookies.